EW8153 Weather Reports


time (UTC)temp
C
wind
direction
speed
KPH
gust
KPH
rain 1hr
cm
rain 24hr
cm
rain mn
cm
humidity
%
barometer
mb
20260507225524 8 123 4.8 12.9 0.00 0.00 0.00 89 1016.5
20260507225024 8 128 4.8 12.9 0.00 0.00 0.00 89 1016.5
20260507224544 8 93 6.4 12.9 0.00 0.00 0.00 89 1016.5
20260507224023 8 93 4.8 14.5 0.00 0.00 0.00 90 1016.5
20260507223523 8 221 4.8 14.5 0.00 0.00 0.00 89 1016.5
20260507223038 8 49 3.2 16.1 0.00 0.00 0.00 89 1016.6
20260507222524 8 53 4.8 16.1 0.00 0.00 0.00 89 1016.5
20260507222023 8 26 4.8 14.5 0.00 0.00 0.00 89 1016.6
20260507221537 8 34 4.8 11.3 0.00 0.00 0.00 88 1016.6
20260507221023 8 74 3.2 11.3 0.00 0.00 0.00 88 1016.7
20260507220523 8 149 3.2 11.3 0.00 0.00 0.00 88 1016.8
20260507220045 8 108 3.2 12.9 0.00 0.00 0.00 88 1016.9
20260507215528 8 120 3.2 12.9 0.00 0.00 0.00 88 1016.8
20260507215024 8 68 3.2 12.9 0.00 0.00 0.00 88 1016.8
20260507214541 8 51 4.8 12.9 0.00 0.00 0.00 88 1016.9
20260507214024 8 131 4.8 12.9 0.00 0.00 0.00 88 1017.0
20260507213524 8 118 4.8 12.9 0.00 0.00 0.00 88 1017.0
20260507213040 8 117 4.8 12.9 0.00 0.00 0.00 88 1017.0
20260507212523 8 111 4.8 12.9 0.00 0.00 0.00 88 1017.0
20260507212023 8 74 3.2 14.5 0.00 0.00 0.00 88 1017.0
20260507211538 8 111 4.8 14.5 0.00 0.00 0.00 87 1016.9
20260507211023 9 80 3.2 12.9 0.00 0.00 0.00 87 1016.9
20260507210523 9 57 4.8 12.9 0.00 0.00 0.00 87 1017.0
20260507210038 9 68 4.8 12.9 0.00 0.00 0.00 87 1017.0
20260507205526 9 87 3.2 14.5 0.00 0.00 0.00 87 1017.0
20260507205024 9 126 4.8 14.5 0.00 0.00 0.00 86 1017.0
20260507204544 9 134 3.2 12.9 0.00 0.00 0.00 86 1017.0
20260507204026 9 106 3.2 12.9 0.00 0.00 0.00 86 1016.9
20260507203523 9 111 4.8 12.9 0.00 0.00 0.00 86 1016.9
20260507203036 9 86 3.2 12.9 0.00 0.00 0.00 85 1016.7
20260507202523 9 98 4.8 14.5 0.00 0.00 0.00 85 1016.7
20260507202023 10 76 4.8 14.5 0.00 0.00 0.00 85 1016.6
20260507201542 10 120 4.8 12.9 0.00 0.00 0.00 85 1016.6
20260507201024 10 123 4.8 12.9 0.00 0.00 0.00 85 1016.5
20260507200527 10 68 4.8 12.9 0.00 0.00 0.00 84 1016.4
20260507200038 10 142 3.2 12.9 0.00 0.00 0.00 84 1016.2
20260507195523 10 83 3.2 11.3 0.00 0.00 0.00 83 1016.2
20260507195023 10 108 3.2 16.1 0.00 0.00 0.00 83 1016.1
20260507194537 10 55 4.8 16.1 0.00 0.00 0.00 82 1016.1
20260507194023 10 16 3.2 11.3 0.00 0.00 0.00 82 1016.0
20260507193523 10 51 3.2 11.3 0.00 0.00 0.00 81 1015.9
20260507193047 10 132 3.2 11.3 0.00 0.00 0.00 81 1015.9
20260507192523 10 93 3.2 9.7 0.00 0.00 0.00 81 1015.9
20260507192023 10 130 3.2 9.7 0.00 0.00 0.00 80 1015.9
20260507191550 10 120 1.6 11.3 0.00 0.00 0.00 80 1015.9
20260507191022 11 239 4.8 11.3 0.00 0.00 0.00 79 1015.9
20260507190524 11 100 3.2 9.7 0.00 0.00 0.00 79 1015.9
20260507190040 11 128 3.2 9.7 0.00 0.00 0.00 78 1015.9
20260507185523 11 171 3.2 9.7 0.00 0.00 0.00 78 1015.9
20260507185026 11 205 3.2 11.3 0.00 0.00 0.00 77 1015.8
20260507184538 11 115 3.2 11.3 0.00 0.00 0.00 77 1015.8
20260507184027 11 139 3.2 11.3 0.00 0.00 0.00 76 1015.6
20260507183523 11 109 3.2 9.7 0.00 0.00 0.00 75 1015.7
20260507183039 11 104 3.2 9.7 0.00 0.00 0.00 74 1015.8
20260507182523 11 178 3.2 11.3 0.00 0.00 0.00 72 1015.7
20260507182023 11 111 3.2 12.9 0.00 0.00 0.00 71 1015.7
20260507181537 11 187 3.2 12.9 0.00 0.00 0.00 69 1015.7
20260507181026 12 196 3.2 11.3 0.00 0.00 0.00 69 1015.7
20260507180526 12 142 3.2 11.3 0.00 0.00 0.00 68 1015.8
20260507180037 12 139 3.2 11.3 0.00 0.00 0.00 70 1015.7
20260507175523 12 316 1.6 14.5 0.00 0.00 0.00 69 1015.8
20260507175025 12 255 3.2 14.5 0.00 0.00 0.00 68 1015.8
20260507174541 12 135 3.2 12.9 0.00 0.00 0.00 67 1015.9
20260507174022 12 121 3.2 12.9 0.00 0.00 0.00 66 1015.9
20260507173524 12 93 1.6 8.0 0.00 0.00 0.00 68 1015.8
20260507173040 12 0 1.6 8.0 0.00 0.00 0.00 69 1015.9
20260507172524 12 93 1.6 8.0 0.00 0.00 0.00 71 1015.8
20260507172023 12 158 1.6 11.3 0.00 0.00 0.00 71 1015.9
20260507171539 12 149 1.6 11.3 0.00 0.00 0.00 71 1015.9
20260507171023 12 137 1.6 12.9 0.00 0.00 0.00 72 1016.0
20260507170522 12 124 4.8 14.5 0.00 0.00 0.00 73 1016.0
20260507170044 12 219 3.2 14.5 0.00 0.00 0.00 73 1016.0
20260507165523 13 187 3.2 11.3 0.00 0.00 0.00 72 1015.9
20260507165023 13 149 3.2 9.7 0.00 0.00 0.00 71 1015.9
20260507164536 13 137 4.8 12.9 0.00 0.00 0.00 70 1015.9
20260507164023 13 212 3.2 12.9 0.00 0.00 0.00 69 1015.8
20260507163523 14 132 1.6 9.7 0.00 0.00 0.00 69 1015.9
20260507163043 14 138 1.6 9.7 0.00 0.00 0.00 70 1015.9
20260507162524 14 137 3.2 12.9 0.00 0.00 0.00 70 1015.9
20260507162023 13 221 3.2 12.9 0.00 0.00 0.00 71 1015.9
20260507161541 13 120 3.2 11.3 0.00 0.00 0.00 71 1015.9
20260507161023 13 169 3.2 11.3 0.00 0.00 0.00 71 1016.0
20260507160526 13 291 3.2 11.3 0.00 0.00 0.00 71 1016.0
20260507160040 13 187 3.2 16.1 0.00 0.00 0.00 70 1016.0
20260507155526 13 115 3.2 16.1 0.00 0.00 0.00 70 1016.1
20260507155022 14 196 4.8 12.9 0.00 0.00 0.00 68 1016.2
20260507154538 14 137 3.2 11.3 0.00 0.00 0.00 69 1016.1
20260507154023 14 121 3.2 14.5 0.00 0.00 0.00 70 1016.2
20260507153523 14 139 1.6 14.5 0.00 0.00 0.00 69 1016.2
20260507153046 14 120 4.8 12.9 0.00 0.00 0.00 69 1016.3
20260507152525 14 124 3.2 12.9 0.00 0.00 0.00 69 1016.2
20260507152025 14 0 3.2 12.9 0.00 0.00 0.00 69 1016.2
20260507151535 14 265 3.2 11.3 0.00 0.00 0.00 69 1016.2
20260507151025 14 196 3.2 11.3 0.00 0.00 0.00 69 1016.2
20260507150523 14 120 3.2 16.1 0.00 0.00 0.00 69 1016.2
20260507150040 14 144 3.2 20.9 0.00 0.00 0.00 68 1016.3
20260507145523 14 178 6.4 20.9 0.00 0.00 0.00 67 1016.3
20260507145022 15 146 4.8 20.9 0.00 0.00 0.00 67 1016.2
20260507144539 14 191 4.8 14.5 0.00 0.00 0.00 68 1016.1
20260507144026 14 292 3.2 14.5 0.00 0.00 0.00 68 1016.2
20260507143523 14 254 4.8 14.5 0.00 0.00 0.00 67 1016.2
20260507143039 15 128 3.2 17.7 0.00 0.00 0.00 68 1016.2
20260507142524 15 184 4.8 17.7 0.00 0.00 0.00 67 1016.2
20260507142023 15 212 4.8 17.7 0.00 0.00 0.00 68 1016.2
20260507141537 15 88 6.4 22.5 0.00 0.00 0.00 67 1016.3
20260507141023 15 190 4.8 22.5 0.00 0.00 0.00 69 1016.3
20260507140523 14 137 4.8 16.1 0.00 0.00 0.00 67 1016.3
20260507140043 14 137 3.2 16.1 0.00 0.00 0.00 67 1016.4
20260507135527 15 167 6.4 16.1 0.00 0.00 0.00 67 1016.3
20260507135023 15 144 6.4 16.1 0.00 0.00 0.00 66 1016.4
20260507134544 15 205 3.2 16.1 0.00 0.00 0.00 69 1016.4
20260507134024 15 298 4.8 16.1 0.00 0.00 0.00 70 1016.4
20260507133523 15 138 6.4 16.1 0.00 0.00 0.00 68 1016.4
20260507133041 15 141 4.8 16.1 0.00 0.00 0.00 69 1016.3
20260507132522 15 150 3.2 14.5 0.00 0.00 0.00 69 1016.3
20260507132022 15 239 4.8 14.5 0.00 0.00 0.00 68 1016.3
20260507131553 15 105 4.8 16.1 0.00 0.00 0.00 69 1016.3
20260507131024 15 108 3.2 16.1 0.00 0.00 0.00 67 1016.3
20260507130522 15 144 4.8 16.1 0.00 0.00 0.00 65 1016.3
20260507130043 15 193 4.8 14.5 0.00 0.00 0.00 67 1016.3
20260507125523 15 186 3.2 12.9 0.00 0.00 0.00 68 1016.4
20260507125023 15 120 4.8 12.9 0.00 0.00 0.00 67 1016.3
20260507124537 15 178 3.2 12.9 0.00 0.00 0.00 69 1016.2
20260507124025 15 169 4.8 14.5 0.00 0.00 0.00 69 1016.2
20260507123523 15 298 4.8 16.1 0.00 0.00 0.00 68 1016.2
20260507123037 14 80 4.8 22.5 0.00 0.00 0.00 69 1016.2
20260507122523 14 196 4.8 22.5 0.00 0.00 0.00 68 1016.3
20260507122024 14 142 4.8 16.1 0.00 0.00 0.00 69 1016.4
20260507121543 14 144 3.2 16.1 0.00 0.00 0.00 69 1016.4
20260507121025 14 212 4.8 16.1 0.00 0.00 0.00 69 1016.4
20260507120524 14 146 4.8 16.1 0.00 0.00 0.00 69 1016.4
20260507120043 14 103 6.4 16.1 0.00 0.00 0.00 69 1016.5
20260507115525 14 221 3.2 14.5 0.00 0.00 0.00 69 1016.5
20260507115024 14 140 4.8 16.1 0.00 0.00 0.00 69 1016.4
20260507114543 14 98 4.8 16.1 0.00 0.00 0.00 69 1016.5
20260507114024 14 153 6.4 16.1 0.00 0.00 0.00 69 1016.4
20260507113525 15 225 4.8 14.5 0.00 0.00 0.00 69 1016.5
20260507113038 14 164 4.8 16.1 0.00 0.00 0.00 70 1016.4
20260507112524 14 187 3.2 16.1 0.00 0.00 0.00 71 1016.3
20260507112024 13 107 4.8 14.5 0.00 0.00 0.00 71 1016.4
20260507111537 13 51 4.8 12.9 0.00 0.00 0.00 71 1016.5
20260507111024 13 178 4.8 12.9 0.00 0.00 0.00 71 1016.6
20260507110524 13 164 4.8 12.9 0.00 0.00 0.00 72 1016.7
20260507110036 13 34 3.2 12.9 0.00 0.00 0.00 72 1016.6
20260507105524 13 137 4.8 14.5 0.00 0.00 0.00 73 1016.7
20260507105024 12 265 4.8 14.5 0.00 0.00 0.00 73 1016.6
20260507104536 12 190 3.2 12.9 0.00 0.00 0.00 73 1016.7
20260507104025 12 137 3.2 11.3 0.00 0.00 0.00 73 1016.7
20260507103524 12 158 4.8 11.3 0.00 0.00 0.00 72 1016.7
20260507103043 12 164 3.2 11.3 0.00 0.00 0.00 72 1016.7
20260507102524 12 113 3.2 12.9 0.00 0.00 0.00 72 1016.7
20260507102024 12 296 3.2 12.9 0.00 0.00 0.00 72 1016.8
20260507101540 12 120 3.2 14.5 0.00 0.00 0.00 72 1016.8
20260507101024 13 201 4.8 14.5 0.00 0.00 0.00 71 1016.8
20260507100524 13 142 3.2 12.9 0.00 0.00 0.00 72 1016.9
20260507100041 13 255 4.8 12.9 0.00 0.00 0.00 71 1016.8
20260507095527 13 120 4.8 12.9 0.00 0.00 0.00 70 1016.8
20260507095024 13 121 3.2 12.9 0.00 0.00 0.00 70 1016.8
20260507094539 13 137 3.2 12.9 0.00 0.00 0.00 70 1016.8
20260507094025 13 153 3.2 12.9 0.00 0.00 0.00 70 1016.8
20260507093524 13 162 3.2 12.9 0.00 0.00 0.00 70 1016.7
20260507093037 13 111 1.6 8.0 0.00 0.00 0.00 72 1016.7
20260507092524 13 0 1.6 8.0 0.00 0.00 0.00 71 1016.6
20260507092024 13 113 1.6 6.4 0.00 0.00 0.00 71 1016.6
20260507091536 12 9 1.6 8.0 0.00 0.00 0.00 68 1016.6
20260507091024 12 0 1.6 8.0 0.00 0.00 0.00 67 1016.6
20260507090524 12 265 1.6 9.7 0.00 0.00 0.00 67 1016.7
20260507090040 12 265 1.6 9.7 0.00 0.00 0.00 67 1016.6
20260507085524 13 120 3.2 12.9 0.00 0.00 0.00 68 1016.6
20260507085023 13 86 3.2 12.9 0.00 0.00 0.00 70 1016.6
20260507084539 12 309 1.6 9.7 0.00 0.00 0.00 71 1016.7
20260507084022 12 63 1.6 6.4 0.00 0.00 0.00 73 1016.7
20260507083522 12 178 1.6 8.0 0.00 0.00 0.00 73 1016.7
20260507083036 12 66 1.6 9.7 0.00 0.00 0.00 74 1016.7
20260507082523 12 93 3.2 11.3 0.00 0.00 0.00 73 1016.7
20260507082022 12 61 3.2 14.5 0.00 0.00 0.00 74 1016.7
20260507081544 12 63 3.2 14.5 0.00 0.00 0.00 75 1016.6
20260507081023 12 162 3.2 11.3 0.00 0.00 0.00 75 1016.5
20260507080525 11 90 3.2 11.3 0.00 0.00 0.00 76 1016.5
20260507080044 11 51 1.6 12.9 0.00 0.00 0.00 78 1016.6
20260507075526 11 71 3.2 12.9 0.00 0.00 0.00 78 1016.5
20260507075022 11 72 3.2 12.9 0.00 0.00 0.00 79 1016.5
20260507074557 11 28 3.2 12.9 0.00 0.00 0.00 80 1016.5
20260507074026 10 90 3.2 12.9 0.00 0.00 0.00 81 1016.5
20260507073522 10 51 3.2 9.7 0.00 0.00 0.00 81 1016.5
20260507073036 10 88 1.6 12.9 0.00 0.00 0.00 81 1016.4
20260507072526 10 32 3.2 12.9 0.00 0.00 0.00 81 1016.4
20260507072023 10 113 3.2 11.3 0.00 0.00 0.00 82 1016.4
20260507071536 10 121 3.2 11.3 0.00 0.00 0.00 82 1016.3
20260507071023 10 42 3.2 12.9 0.00 0.00 0.00 82 1016.3
20260507070528 10 82 3.2 12.9 0.00 0.00 0.00 82 1016.2
20260507070043 10 83 3.2 12.9 0.00 0.00 0.00 83 1016.2
20260507065525 10 61 3.2 12.9 0.00 0.00 0.00 83 1016.3
20260507065022 10 126 3.2 14.5 0.00 0.00 0.00 83 1016.3
20260507064540 10 109 4.8 14.5 0.00 0.00 0.00 85 1016.3
20260507064026 9 83 3.2 12.9 0.00 0.00 0.00 86 1016.2
20260507063527 8 212 3.2 12.9 0.00 0.00 0.00 87 1016.2
20260507063039 8 72 3.2 14.5 0.00 0.00 0.00 88 1016.1
20260507062526 8 51 1.6 14.5 0.00 0.00 0.00 88 1016.1
20260507062026 8 93 3.2 9.7 0.00 0.00 0.00 88 1016.1
20260507061538 8 34 3.2 9.7 0.00 0.00 0.00 88 1016.1
20260507061026 8 55 3.2 9.7 0.00 0.00 0.00 88 1016.0
20260507060526 8 76 1.6 11.3 0.00 0.00 0.00 88 1015.9
20260507060036 8 221 3.2 11.3 0.00 0.00 0.00 88 1016.0
20260507055526 8 80 3.2 11.3 0.00 0.00 0.00 89 1015.8
20260507055027 8 65 3.2 11.3 0.00 0.00 0.00 89 1015.8
20260507054604 8 71 3.2 11.3 0.00 0.00 0.00 89 1015.8
20260507054026 8 80 3.2 9.7 0.00 0.00 0.00 90 1015.7
20260507053530 8 82 1.6 8.0 0.00 0.00 0.00 90 1015.6
20260507053043 7 334 1.6 8.0 0.00 0.00 0.00 90 1015.5
20260507052525 7 22 1.6 8.0 0.00 0.00 0.00 90 1015.4
20260507052023 7 59 1.6 6.4 0.00 0.00 0.00 90 1015.4
20260507051542 7 76 1.6 6.4 0.00 0.00 0.00 89 1015.5
20260507051022 7 55 1.6 6.4 0.00 0.00 0.00 90 1015.4
20260507050526 7 51 1.6 6.4 0.00 0.00 0.00 90 1015.5
20260507050039 7 93 0.0 8.0 0.00 0.00 0.00 90 1015.5
20260507045526 7 0 1.6 8.0 0.00 0.00 0.00 90 1015.4
20260507045025 7 9 1.6 6.4 0.00 0.00 0.00 89 1015.3
20260507044544 7 309 1.6 6.4 0.00 0.00 0.00 89 1015.3
20260507044026 7 34 1.6 6.4 0.00 0.00 0.00 89 1015.3
20260507043526 7 129 1.6 6.4 0.00 0.00 0.00 89 1015.2
20260507043036 7 0 0.0 6.4 0.00 0.00 0.00 89 1015.2
20260507042526 7 65 0.0 6.4 0.00 0.00 0.00 89 1015.2
20260507042026 7 76 1.6 6.4 0.00 0.00 0.00 89 1015.2
20260507041548 7 61 1.6 6.4 0.00 0.00 0.00 89 1015.2
20260507041026 7 0 0.0 6.4 0.00 0.00 0.00 89 1015.2
20260507040523 7 325 0.0 6.4 0.00 0.00 0.00 89 1015.1
20260507040044 7 80 1.6 6.4 0.00 0.00 0.00 90 1015.1
20260507035525 7 26 0.0 4.8 0.00 0.00 0.00 90 1015.2
20260507035027 7 61 0.0 6.4 0.00 0.00 0.00 89 1015.2
20260507034542 7 9 1.6 6.4 0.00 0.00 0.00 89 1015.2
20260507034022 7 51 1.6 4.8 0.00 0.00 0.00 89 1015.2
20260507033522 7 0 0.0 4.8 0.00 0.00 0.00 89 1015.1
20260507033042 7 51 0.0 4.8 0.00 0.00 0.00 88 1015.1
20260507032527 7 0 0.0 4.8 0.00 0.00 0.00 88 1015.1
20260507032026 7 0 0.0 4.8 0.00 0.00 0.00 88 1015.1
20260507031546 7 0 0.0 4.8 0.00 0.00 0.00 88 1015.1
20260507031029 7 76 0.0 4.8 0.00 0.00 0.00 88 1015.1
20260507030526 7 319 0.0 4.8 0.00 0.00 0.00 87 1015.1
20260507030047 7 298 0.0 4.8 0.00 0.00 0.00 87 1015.1
20260507025526 7 55 0.0 4.8 0.00 0.00 0.00 87 1015.1
20260507025026 7 9 0.0 4.8 0.00 0.00 0.00 87 1015.1
20260507024541 7 51 0.0 4.8 0.00 0.00 0.00 87 1015.1
20260507024025 7 65 0.0 4.8 0.00 0.00 0.00 87 1015.1
20260507023526 7 217 1.6 4.8 0.00 0.00 0.00 87 1015.1
20260507023040 7 51 0.0 6.4 0.00 0.00 0.00 88 1015.0
20260507022530 8 51 0.0 6.4 0.00 0.00 0.00 88 1015.0
20260507022027 8 34 0.0 3.2 0.00 0.00 0.00 88 1015.0
20260507021534 8 282 0.0 3.2 0.00 0.00 0.00 88 1015.0
20260507021023 8 0 0.0 3.2 0.00 0.00 0.00 88 1015.0
20260507020524 8 0 0.0 3.2 0.00 0.00 0.00 88 1015.0
20260507020039 8 9 0.0 3.2 0.00 0.00 0.00 88 1015.0
20260507015528 8 44 0.0 3.2 0.00 0.00 0.00 88 1014.9
20260507015024 8 0 0.0 3.2 0.00 0.00 0.00 88 1015.0
20260507014547 8 0 0.0 3.2 0.00 0.00 0.00 88 1014.9
20260507014024 8 22 0.0 3.2 0.00 0.00 0.00 88 1015.0
20260507013524 8 34 0.0 4.8 0.00 0.00 0.00 87 1015.0
20260507013036 8 0 0.0 4.8 0.00 0.00 0.00 88 1014.9
20260507012524 8 265 0.0 3.2 0.00 0.00 0.00 87 1014.9
20260507012026 8 41 0.0 3.2 0.00 0.00 0.00 87 1015.0
20260507011543 8 0 0.0 3.2 0.00 0.00 0.00 87 1015.0
20260507011023 8 309 0.0 3.2 0.00 0.00 0.00 87 1015.0
20260507010524 8 0 0.0 3.2 0.00 0.00 0.00 87 1015.0
20260507010038 8 0 0.0 3.2 0.00 0.00 0.00 86 1015.0
20260507005523 8 0 0.0 3.2 0.00 0.00 0.00 86 1015.0
20260507005023 8 0 0.0 3.2 0.00 0.00 0.00 86 1014.9
20260507004537 8 19 0.0 4.8 0.00 0.00 0.00 86 1014.9
20260507004026 8 34 0.0 4.8 0.00 0.00 0.00 86 1014.9
20260507003525 8 34 0.0 3.2 0.00 0.00 0.00 85 1014.9
20260507003051 8 265 0.0 3.2 0.00 0.00 0.00 85 1014.9
20260507002524 8 0 0.0 3.2 0.00 0.00 0.00 85 1015.0
20260507002025 8 0 0.0 4.8 0.00 0.00 0.00 85 1015.0
20260507001543 8 26 0.0 4.8 0.00 0.00 0.00 85 1015.0
20260507001024 8 0 0.0 4.8 0.00 0.00 0.00 85 1015.0
20260507000524 8 51 0.0 4.8 0.00 0.00 0.00 85 1014.9
20260507000043 8 178 1.6 4.8 0.00 0.00 0.00 85 1015.0
20260506235524 8 0 0.0 4.8 0.00 0.00 0.00 84 1015.0
20260506235023 8 34 0.0 4.8 0.00 0.00 0.00 84 1015.0
20260506234540 8 0 0.0 4.8 0.00 0.00 0.00 84 1015.0
20260506234024 8 31 0.0 6.4 0.00 0.00 0.00 84 1015.0
20260506233525 8 193 1.6 6.4 0.00 0.00 0.00 84 1015.0
20260506233042 8 0 0.0 4.8 0.00 0.00 0.00 83 1014.9
20260506232524 8 102 0.0 3.2 0.00 0.00 0.00 83 1015.0
20260506232024 8 0 0.0 6.4 0.00 0.00 0.00 83 1015.0
20260506231541 8 0 1.6 6.4 0.00 0.00 0.00 83 1015.0
20260506231024 8 51 0.0 3.2 0.00 0.00 0.00 83 1014.9
20260506230525 8 0 0.0 3.2 0.00 0.00 0.00 83 1015.0
20260506230036 8 0 0.0 3.2 0.00 0.00 0.00 83 1015.0